SWA3472 KBWI-KMHT

Flight info

Callsign SWA3472
Flight time 1h 6m
Altitude 37000
Route DUKPN1 BROSS Q419 RBV Q22 LLUND SMYTH ROZZE2
Aircraft B737/M-SDE2E3GIJ4RWZ/LB1D1

Departure

Time 2026-04-27 17:48
Airport Baltimore/Washington International Thurgood Marshall Airport (KBWI)

Arrival

Time 2026-04-27 18:54
Airport Manchester-Boston Regional Airport (KMHT)
Time Latitude Longitude Altitude Speed Heading
2026-04-27 16:55 39.17949 -76.67244 155 ft 0 kts 59°
2026-04-27 17:36 39.17949 -76.67245 155 ft 2 kts 59°
2026-04-27 17:36 39.17941 -76.67263 155 ft 4 kts 60°
2026-04-27 17:37 39.17928 -76.67293 155 ft 4 kts 63°
2026-04-27 17:37 39.17917 -76.67325 154 ft 4 kts 77°
2026-04-27 17:37 39.17915 -76.67348 153 ft 0 kts 98°
2026-04-27 17:42 39.17915 -76.67347 153 ft 1 kts 99°
2026-04-27 17:42 39.17901 -76.67327 153 ft 6 kts 146°
2026-04-27 17:42 39.17850 -76.67282 154 ft 12 kts 145°
2026-04-27 17:42 39.17770 -76.67207 155 ft 17 kts 145°
2026-04-27 17:43 39.17663 -76.67108 155 ft 20 kts 144°
2026-04-27 17:43 39.17561 -76.67004 156 ft 16 kts 129°
2026-04-27 17:43 39.17534 -76.66870 155 ft 15 kts 94°
2026-04-27 17:43 39.17526 -76.66735 155 ft 15 kts 93°
2026-04-27 17:44 39.17519 -76.66610 154 ft 11 kts 93°
2026-04-27 17:44 39.17553 -76.66535 154 ft 10 kts 33°
2026-04-27 17:44 39.17567 -76.66457 153 ft 10 kts 116°
2026-04-27 17:44 39.17528 -76.66381 152 ft 11 kts 124°
2026-04-27 17:45 39.17480 -76.66286 149 ft 13 kts 126°
2026-04-27 17:45 39.17455 -76.66194 149 ft 11 kts 94°
2026-04-27 17:45 39.17450 -76.66097 148 ft 12 kts 94°
2026-04-27 17:45 39.17443 -76.65976 146 ft 15 kts 95°
2026-04-27 17:46 39.17435 -76.65825 143 ft 18 kts 94°
2026-04-27 17:46 39.17426 -76.65662 141 ft 18 kts 93°
2026-04-27 17:46 39.17415 -76.65548 141 ft 9 kts 117°
2026-04-27 17:46 39.17361 -76.65522 141 ft 9 kts 178°
2026-04-27 17:47 39.17302 -76.65530 140 ft 8 kts 187°
2026-04-27 17:47 39.17280 -76.65564 140 ft 8 kts 266°
2026-04-27 17:47 39.17306 -76.65993 144 ft 93 kts 274°
2026-04-27 17:47 39.17370 -76.67182 163 ft 167 kts 274°
2026-04-27 17:48 39.17461 -76.68744 990 ft 173 kts 275°
2026-04-27 17:48 39.17564 -76.70261 2151 ft 168 kts 276°
2026-04-27 17:48 39.17667 -76.71870 2695 ft 196 kts 277°
2026-04-27 17:48 39.17632 -76.73761 2994 ft 229 kts 252°
2026-04-27 17:49 39.16634 -76.75432 3481 ft 245 kts 211°
2026-04-27 17:49 39.15015 -76.76032 4290 ft 245 kts 175°
2026-04-27 17:49 39.13431 -76.75350 5135 ft 243 kts 140°
2026-04-27 17:49 39.12253 -76.73800 6001 ft 245 kts 129°
2026-04-27 17:50 39.11106 -76.72120 6688 ft 253 kts 129°
2026-04-27 17:50 39.08751 -76.68673 6987 ft 257 kts 118°
2026-04-27 17:50 39.08187 -76.66542 6996 ft 252 kts 92°
2026-04-27 17:51 39.08204 -76.64277 7128 ft 267 kts 84°
2026-04-27 17:51 39.08317 -76.61841 7935 ft 276 kts 84°
2026-04-27 17:51 39.08433 -76.59355 8980 ft 280 kts 84°
2026-04-27 17:51 39.08545 -76.56826 9980 ft 286 kts 83°
2026-04-27 17:52 39.08655 -76.54202 10616 ft 305 kts 83°
2026-04-27 17:52 39.08772 -76.51338 10832 ft 336 kts 84°
2026-04-27 17:52 39.08891 -76.48250 11381 ft 351 kts 84°
2026-04-27 17:52 39.09109 -76.45098 12196 ft 355 kts 73°
2026-04-27 17:53 39.09860 -76.42079 13090 ft 356 kts 66°
2026-04-27 17:53 39.10718 -76.39066 13965 ft 361 kts 66°
2026-04-27 17:53 39.11589 -76.36001 14746 ft 367 kts 66°
2026-04-27 17:53 39.12454 -76.32886 15545 ft 372 kts 66°
2026-04-27 17:54 39.13314 -76.29729 16369 ft 376 kts 67°
2026-04-27 17:54 39.14175 -76.26533 17164 ft 380 kts 67°
2026-04-27 17:54 39.15042 -76.23288 17946 ft 386 kts 68°
2026-04-27 17:54 39.15665 -76.19885 18696 ft 395 kts 77°
2026-04-27 17:55 39.16018 -76.16348 19371 ft 400 kts 79°
2026-04-27 17:55 39.16344 -76.12767 20028 ft 405 kts 78°
2026-04-27 17:55 39.16717 -76.09153 20676 ft 409 kts 78°
2026-04-27 17:55 39.17124 -76.05503 21327 ft 413 kts 77°
2026-04-27 17:56 39.17546 -76.01824 21967 ft 418 kts 77°
2026-04-27 17:56 39.17974 -75.98097 22600 ft 422 kts 77°
2026-04-27 17:56 39.18402 -75.94336 23223 ft 427 kts 77°
2026-04-27 17:56 39.18957 -75.90572 23789 ft 426 kts 66°
2026-04-27 17:57 39.20260 -75.87192 24293 ft 419 kts 49°
2026-04-27 17:57 39.22186 -75.84503 24857 ft 411 kts 36°
2026-04-27 17:57 39.24368 -75.82118 25396 ft 413 kts 34°
2026-04-27 17:57 39.26596 -75.79756 25896 ft 416 kts 34°
2026-04-27 17:58 39.28842 -75.77372 26382 ft 420 kts 34°
2026-04-27 17:58 39.31095 -75.74950 26885 ft 423 kts 34°
2026-04-27 17:58 39.33348 -75.72497 27358 ft 426 kts 34°
2026-04-27 17:58 39.35616 -75.70008 27847 ft 429 kts 34°
2026-04-27 17:59 39.37890 -75.67503 28310 ft 431 kts 34°
2026-04-27 17:59 39.40183 -75.64975 28762 ft 434 kts 34°
2026-04-27 17:59 39.42492 -75.62429 29184 ft 437 kts 34°
2026-04-27 17:59 39.44814 -75.59870 29631 ft 440 kts 33°
2026-04-27 18:00 39.47151 -75.57302 30043 ft 442 kts 33°
2026-04-27 18:00 39.49370 -75.54866 30384 ft 445 kts 33°
2026-04-27 18:00 39.51736 -75.52266 30717 ft 447 kts 33°
2026-04-27 18:00 39.54105 -75.49656 31205 ft 445 kts 33°
2026-04-27 18:01 39.56446 -75.47070 31824 ft 440 kts 32°
2026-04-27 18:01 39.58762 -75.44512 32410 ft 436 kts 32°
2026-04-27 18:01 39.61060 -75.41974 32896 ft 433 kts 32°
2026-04-27 18:01 39.63353 -75.39443 33362 ft 431 kts 32°
2026-04-27 18:02 39.65632 -75.36925 33869 ft 429 kts 32°
2026-04-27 18:02 39.67892 -75.34425 34356 ft 426 kts 31°
2026-04-27 18:02 39.70137 -75.31941 34737 ft 424 kts 32°
2026-04-27 18:02 39.72387 -75.29452 35015 ft 425 kts 32°
2026-04-27 18:03 39.74638 -75.26958 35293 ft 426 kts 32°
2026-04-27 18:03 39.76890 -75.24459 35623 ft 425 kts 32°
2026-04-27 18:03 39.79121 -75.21928 35933 ft 427 kts 35°
2026-04-27 18:03 39.81170 -75.19081 36194 ft 434 kts 40°
2026-04-27 18:04 39.83148 -75.16109 36494 ft 435 kts 41°
2026-04-27 18:04 39.85115 -75.13116 36761 ft 435 kts 41°
2026-04-27 18:04 39.87085 -75.10128 37028 ft 435 kts 41°
2026-04-27 18:04 39.89062 -75.07148 37287 ft 435 kts 41°
2026-04-27 18:05 39.93071 -75.01145 37290 ft 440 kts 41°
2026-04-27 18:05 39.97052 -74.95117 37278 ft 437 kts 44°
2026-04-27 18:06 40.00519 -74.88557 37290 ft 440 kts 49°
2026-04-27 18:06 40.03859 -74.81844 37300 ft 443 kts 49°
2026-04-27 18:07 40.07218 -74.75164 37298 ft 443 kts 49°
2026-04-27 18:07 40.10620 -74.68451 37292 ft 443 kts 48°
2026-04-27 18:08 40.14016 -74.61750 37300 ft 442 kts 49°
2026-04-27 18:08 40.17406 -74.55044 37292 ft 442 kts 49°
2026-04-27 18:09 40.21031 -74.48656 37288 ft 431 kts 38°
2026-04-27 18:09 40.25537 -74.43669 37305 ft 424 kts 31°
2026-04-27 18:10 40.30162 -74.38840 37315 ft 426 kts 32°
2026-04-27 18:10 40.34783 -74.33944 37302 ft 428 kts 32°
2026-04-27 18:11 40.39401 -74.29002 37300 ft 429 kts 32°
2026-04-27 18:11 40.44021 -74.24040 37297 ft 429 kts 32°
2026-04-27 18:12 40.48634 -74.19077 37293 ft 429 kts 32°
2026-04-27 18:12 40.53239 -74.14118 37294 ft 428 kts 33°
2026-04-27 18:13 40.57842 -74.09155 37295 ft 427 kts 33°
2026-04-27 18:13 40.62440 -74.04196 37298 ft 427 kts 33°
2026-04-27 18:14 40.67030 -73.99236 37300 ft 427 kts 33°
2026-04-27 18:14 40.71625 -73.94259 37294 ft 427 kts 33°
2026-04-27 18:15 40.76214 -73.89279 37301 ft 427 kts 33°
2026-04-27 18:15 40.80774 -73.84323 37294 ft 428 kts 33°
2026-04-27 18:16 40.85629 -73.79990 37303 ft 414 kts 16°
2026-04-27 18:16 40.91167 -73.78465 37284 ft 404 kts 355°
2026-04-27 18:17 40.96777 -73.78814 37291 ft 404 kts 354°
2026-04-27 18:17 41.02409 -73.79230 37284 ft 406 kts 354°
2026-04-27 18:18 41.08069 -73.79611 37285 ft 408 kts 354°
2026-04-27 18:18 41.13742 -73.79967 37283 ft 409 kts 354°
2026-04-27 18:19 41.19422 -73.80315 37289 ft 409 kts 355°
2026-04-27 18:19 41.25118 -73.80662 37285 ft 409 kts 355°
2026-04-27 18:20 41.30804 -73.81010 37277 ft 409 kts 355°
2026-04-27 18:20 41.36483 -73.81359 37280 ft 409 kts 354°
2026-04-27 18:21 41.42160 -73.81708 37257 ft 408 kts 355°
2026-04-27 18:21 41.47818 -73.82057 37258 ft 407 kts 354°
2026-04-27 18:22 41.53472 -73.82406 37270 ft 407 kts 354°
2026-04-27 18:22 41.59128 -73.82757 37259 ft 407 kts 354°
2026-04-27 18:23 41.64773 -73.83107 37259 ft 406 kts 354°
2026-04-27 18:23 41.70420 -73.83457 37261 ft 406 kts 354°
2026-04-27 18:24 41.75113 -73.83749 37262 ft 406 kts 354°
2026-04-27 18:24 41.80764 -73.84102 37263 ft 406 kts 354°
2026-04-27 18:25 41.86412 -73.84454 37262 ft 406 kts 354°
2026-04-27 18:25 41.92064 -73.84808 37263 ft 407 kts 354°
2026-04-27 18:26 41.97723 -73.85163 37261 ft 407 kts 354°
2026-04-27 18:26 42.03384 -73.85518 37269 ft 407 kts 354°
2026-04-27 18:27 42.09047 -73.85874 37260 ft 407 kts 354°
2026-04-27 18:27 42.14707 -73.86230 37266 ft 407 kts 354°
2026-04-27 18:28 42.20367 -73.86587 37267 ft 407 kts 354°
2026-04-27 18:28 42.25989 -73.86943 37270 ft 407 kts 354°
2026-04-27 18:29 42.31681 -73.87303 37262 ft 407 kts 354°
2026-04-27 18:29 42.37348 -73.87663 37034 ft 407 kts 354°
2026-04-27 18:30 42.40165 -73.87841 36885 ft 405 kts 354°
2026-04-27 18:30 42.42937 -73.88017 36736 ft 404 kts 355°
2026-04-27 18:30 42.45752 -73.87727 36548 ft 411 kts
2026-04-27 18:30 42.48484 -73.86330 36421 ft 420 kts 23°
2026-04-27 18:31 42.50872 -73.84076 36278 ft 430 kts 35°
2026-04-27 18:31 42.52895 -73.81031 36111 ft 444 kts 50°
2026-04-27 18:31 42.54354 -73.77284 35902 ft 453 kts 58°
2026-04-27 18:31 42.55633 -73.73352 35656 ft 457 kts 60°
2026-04-27 18:32 42.56864 -73.69372 35419 ft 459 kts 60°
2026-04-27 18:32 42.58093 -73.65377 35183 ft 459 kts 60°
2026-04-27 18:32 42.59333 -73.61392 34938 ft 459 kts 59°
2026-04-27 18:32 42.60585 -73.57424 34582 ft 453 kts 59°
2026-04-27 18:33 42.61829 -73.53520 34037 ft 448 kts 58°
2026-04-27 18:33 42.63073 -73.49645 33274 ft 447 kts 58°
2026-04-27 18:33 42.64319 -73.45778 32458 ft 447 kts 59°
2026-04-27 18:33 42.65567 -73.41906 31623 ft 448 kts 59°
2026-04-27 18:34 42.66813 -73.38029 30774 ft 448 kts 59°
2026-04-27 18:34 42.68056 -73.34151 29857 ft 448 kts 60°
2026-04-27 18:34 42.69299 -73.30266 28789 ft 448 kts 60°
2026-04-27 18:34 42.70537 -73.26385 28027 ft 444 kts 60°
2026-04-27 18:35 42.71753 -73.22556 27360 ft 441 kts 60°
2026-04-27 18:35 42.72986 -73.18686 26742 ft 450 kts 60°
2026-04-27 18:35 42.74238 -73.14756 26091 ft 455 kts 61°
2026-04-27 18:35 42.75484 -73.10823 25433 ft 449 kts 61°
2026-04-27 18:36 42.76704 -73.06943 24848 ft 442 kts 62°
2026-04-27 18:36 42.77558 -73.02948 24606 ft 448 kts 77°
2026-04-27 18:36 42.77765 -72.98680 24389 ft 454 kts 81°
2026-04-27 18:36 42.77944 -72.94375 23725 ft 454 kts 81°
2026-04-27 18:37 42.78145 -72.90124 23040 ft 446 kts 81°
2026-04-27 18:37 42.78362 -72.85950 22405 ft 438 kts 81°
2026-04-27 18:37 42.78585 -72.81886 21800 ft 434 kts 81°
2026-04-27 18:37 42.78810 -72.77802 21168 ft 431 kts 81°
2026-04-27 18:38 42.79030 -72.73744 20550 ft 428 kts 81°
2026-04-27 18:38 42.79250 -72.69715 19963 ft 425 kts 81°
2026-04-27 18:38 42.79470 -72.65707 19353 ft 424 kts 82°
2026-04-27 18:38 42.79688 -72.61718 18755 ft 422 kts 82°
2026-04-27 18:39 42.79904 -72.57751 18073 ft 419 kts 82°
2026-04-27 18:39 42.80117 -72.53819 17407 ft 414 kts 83°
2026-04-27 18:39 42.80323 -72.49944 16693 ft 409 kts 83°
2026-04-27 18:39 42.80521 -72.46149 15943 ft 393 kts 83°
2026-04-27 18:40 42.80705 -72.42509 15316 ft 377 kts 83°
2026-04-27 18:40 42.80880 -72.39020 14745 ft 362 kts 84°
2026-04-27 18:40 42.81048 -72.35672 14213 ft 348 kts 84°
2026-04-27 18:40 42.81210 -72.32440 13636 ft 336 kts 84°
2026-04-27 18:41 42.81367 -72.29327 13111 ft 324 kts 84°
2026-04-27 18:41 42.81518 -72.26315 12609 ft 314 kts 84°
2026-04-27 18:41 42.81664 -72.23403 12144 ft 303 kts 84°
2026-04-27 18:41 42.81803 -72.20578 11672 ft 295 kts 84°
2026-04-27 18:42 42.81938 -72.17828 11218 ft 287 kts 84°
2026-04-27 18:42 42.82025 -72.16042 10924 ft 283 kts 84°
2026-04-27 18:42 42.82208 -72.12522 10443 ft 272 kts 84°
2026-04-27 18:42 42.82347 -72.09995 10351 ft 265 kts 84°
2026-04-27 18:43 42.82484 -72.07483 10244 ft 266 kts 84°
2026-04-27 18:43 42.82619 -72.04976 10100 ft 264 kts 84°
2026-04-27 18:43 42.82750 -72.02498 9871 ft 263 kts 84°
2026-04-27 18:43 42.82883 -72.00020 9541 ft 261 kts 84°
2026-04-27 18:44 42.82999 -71.97558 9179 ft 260 kts 85°
2026-04-27 18:44 42.83094 -71.95138 8859 ft 258 kts 85°
2026-04-27 18:44 42.83363 -71.92744 8506 ft 255 kts 68°
2026-04-27 18:44 42.84218 -71.90664 8202 ft 251 kts 55°
2026-04-27 18:45 42.85230 -71.88740 7866 ft 249 kts 54°
2026-04-27 18:45 42.86251 -71.86834 7557 ft 249 kts 54°
2026-04-27 18:45 42.87274 -71.84911 7205 ft 250 kts 54°
2026-04-27 18:45 42.87617 -71.84264 7089 ft 250 kts 54°
2026-04-27 18:46 42.88484 -71.82614 6811 ft 250 kts 54°
2026-04-27 18:46 42.89492 -71.80687 6461 ft 249 kts 54°
2026-04-27 18:46 42.90494 -71.78774 6106 ft 245 kts 54°
2026-04-27 18:46 42.91477 -71.76893 5777 ft 243 kts 55°
2026-04-27 18:47 42.92456 -71.75017 5447 ft 242 kts 55°
2026-04-27 18:47 42.93417 -71.73180 5354 ft 234 kts 55°
2026-04-27 18:47 42.94353 -71.71391 5187 ft 228 kts 55°
2026-04-27 18:47 42.95245 -71.69655 5084 ft 219 kts 56°
2026-04-27 18:48 42.96128 -71.67948 4987 ft 221 kts 56°
2026-04-27 18:48 42.97021 -71.66227 4712 ft 222 kts 56°
2026-04-27 18:48 42.97910 -71.64511 4457 ft 219 kts 56°
2026-04-27 18:48 42.98784 -71.62847 4170 ft 213 kts 56°
2026-04-27 18:49 42.99657 -71.61246 3889 ft 208 kts 52°
2026-04-27 18:49 43.00586 -71.59739 3615 ft 207 kts 51°
2026-04-27 18:49 43.01509 -71.58252 3313 ft 203 kts 51°
2026-04-27 18:49 43.02403 -71.56780 3053 ft 200 kts 50°
2026-04-27 18:50 43.03315 -71.55358 2780 ft 197 kts 50°
2026-04-27 18:50 43.04193 -71.53947 2532 ft 193 kts 62°
2026-04-27 18:50 43.04388 -71.52213 2237 ft 186 kts 109°
2026-04-27 18:50 43.03671 -71.50807 2091 ft 178 kts 134°
2026-04-27 18:51 43.02857 -71.49623 2043 ft 165 kts 134°
2026-04-27 18:51 43.01921 -71.48761 2014 ft 163 kts 150°
2026-04-27 18:51 43.00910 -71.47997 1792 ft 164 kts 150°
2026-04-27 18:51 42.99874 -71.47333 1556 ft 162 kts 154°
2026-04-27 18:52 42.98858 -71.46733 1340 ft 155 kts 154°
2026-04-27 18:52 42.97910 -71.46172 1089 ft 144 kts 154°
2026-04-27 18:52 42.97019 -71.45643 901 ft 139 kts 154°
2026-04-27 18:53 42.95238 -71.44589 483 ft 139 kts 156°
2026-04-27 18:53 42.94353 -71.44068 296 ft 139 kts 156°
2026-04-27 18:53 42.93511 -71.43565 231 ft 118 kts 156°
2026-04-27 18:53 42.92958 -71.43237 239 ft 55 kts 156°
2026-04-27 18:54 42.92782 -71.43137 238 ft 9 kts 167°
2026-04-27 18:54 42.92730 -71.43164 238 ft 9 kts 245°
2026-04-27 18:54 42.92709 -71.43240 238 ft 8 kts 248°
2026-04-27 18:54 42.92686 -71.43313 237 ft 9 kts 246°
2026-04-27 18:55 42.92656 -71.43404 236 ft 11 kts 245°
2026-04-27 18:55 42.92678 -71.43482 231 ft 10 kts 329°
2026-04-27 18:55 42.92739 -71.43518 231 ft 9 kts 339°
2026-04-27 18:55 42.92799 -71.43551 232 ft 9 kts 339°
2026-04-27 18:56 42.92849 -71.43584 231 ft 7 kts 321°
2026-04-27 18:56 42.92846 -71.43641 234 ft 7 kts 239°
2026-04-27 18:56 42.92835 -71.43675 231 ft 0 kts 246°